Location: Newark
(34.1333°N, 7.9667°W)
Time: 06:15:09
(UTC+00:00)

Envisat - Pass Details

Date: 01 October 2021
Orbit: 764 x 766 km, 98.2° (Epoch: 23 October)

Event Time Altitude Azimuth Distance (km) Brightness Sun altitude
Rises 05:16:39 0° 18° (NNE) 3,234 6.6 -15.2°
Reaches altitude 10° 05:19:01 10° 22° (NNE) 2,304 5.9 -14.8°
Maximum altitude 05:23:59 54° 100° (E) 922 3.8 -13.7°
Drops below altitude 10° 05:28:55 10° 178° (S) 2,290 5.4 -12.7°
Sets 05:31:16 0° 182° (S) 3,212 6.2 -12.2°
